DL2GFH-3 Weather Reports


Display with metric or nautical units.
time (UTC)temp
F
wind
direction
speed
MPH
gust
MPH
rain 1hr
in
rain 24hr
in
rain mn
in
humidity
%
barometer
mb
20260507151513 68 0 0.0 0.0 0.00 0.00 0.00 35 1014.3
20260507150008 68 0 0.0 0.0 0.00 0.00 0.00 35 1014.4
20260507144503 69 0 0.0 0.0 0.00 0.00 0.00 34 1014.4
20260507142957 69 0 0.0 0.0 0.00 0.00 0.00 34 1014.5
20260507141452 69 0 0.0 0.0 0.00 0.00 0.00 34 1014.4
20260507135946 69 0 0.0 0.0 0.00 0.00 0.00 34 1014.3
20260507134441 69 0 0.0 0.0 0.00 0.00 0.00 33 1014.4
20260507132935 69 0 0.0 0.0 0.00 0.00 0.00 33 1014.5
20260507131430 70 0 0.0 0.0 0.00 0.00 0.00 33 1014.5
20260507125925 69 0 0.0 0.0 0.00 0.00 0.00 34 1014.6
20260507124419 68 0 0.0 0.0 0.00 0.00 0.00 35 1014.6
20260507122914 68 0 0.0 0.0 0.00 0.00 0.00 35 1014.6
20260507121408 67 0 0.0 0.0 0.00 0.00 0.00 36 1014.6
20260507115903 66 0 0.0 0.0 0.00 0.00 0.00 37 1014.6
20260507114358 66 0 0.0 0.0 0.00 0.00 0.00 36 1014.7
20260507112852 66 0 0.0 0.0 0.00 0.00 0.00 36 1014.5
20260507111347 67 0 0.0 0.0 0.00 0.00 0.00 35 1014.4
20260507105841 68 0 0.0 0.0 0.00 0.00 0.00 34 1014.3
20260507104336 70 0 0.0 0.0 0.00 0.00 0.00 32 1014.3
20260507102830 72 0 0.0 0.0 0.00 0.00 0.00 30 1014.3
20260507101325 73 0 0.0 0.0 0.00 0.00 0.00 29 1014.3
20260507095820 68 0 0.0 0.0 0.00 0.00 0.00 34 1014.4
20260507094314 69 0 0.0 0.0 0.00 0.00 0.00 33 1014.3
20260507092809 70 0 0.0 0.0 0.00 0.00 0.00 31 1014.2
20260507091303 72 0 0.0 0.0 0.00 0.00 0.00 29 1014.1
20260507085758 73 0 0.0 0.0 0.00 0.00 0.00 29 1013.9
20260507084253 71 0 0.0 0.0 0.00 0.00 0.00 31 1014.0
20260507082747 69 0 0.0 0.0 0.00 0.00 0.00 32 1014.0
20260507081242 66 0 0.0 0.0 0.00 0.00 0.00 35 1014.0
20260507075736 67 0 0.0 0.0 0.00 0.00 0.00 34 1014.0
20260507074231 68 0 0.0 0.0 0.00 0.00 0.00 33 1013.8
20260507072725 67 0 0.0 0.0 0.00 0.00 0.00 34 1013.7
20260507071220 65 0 0.0 0.0 0.00 0.00 0.00 35 1013.7
20260507065715 65 0 0.0 0.0 0.00 0.00 0.00 35 1013.6
20260507064209 65 0 0.0 0.0 0.00 0.00 0.00 36 1013.5
20260507062704 65 0 0.0 0.0 0.00 0.00 0.00 35 1013.5
20260507061158 66 0 0.0 0.0 0.00 0.00 0.00 35 1013.4
20260507055653 64 0 0.0 0.0 0.00 0.00 0.00 37 1013.3
20260507054148 65 0 0.0 0.0 0.00 0.00 0.00 35 1013.1
20260507052642 67 0 0.0 0.0 0.00 0.00 0.00 34 1013.0
20260507045631 62 0 0.0 0.0 0.00 0.00 0.00 38 1012.7
20260507044126 63 0 0.0 0.0 0.00 0.00 0.00 37 1012.5
20260507042621 63 0 0.0 0.0 0.00 0.00 0.00 38 1012.4
20260507041115 64 0 0.0 0.0 0.00 0.00 0.00 36 1012.3
20260507035610 66 0 0.0 0.0 0.00 0.00 0.00 34 1012.2
20260507034104 69 0 0.0 0.0 0.00 0.00 0.00 32 1012.1
20260507032559 72 0 0.0 0.0 0.00 0.00 0.00 29 1011.9
20260507031053 71 0 0.0 0.0 0.00 0.00 0.00 31 1011.8
20260507025548 63 0 0.0 0.0 0.00 0.00 0.00 38 1011.9
20260507024043 62 0 0.0 0.0 0.00 0.00 0.00 39 1011.9
20260507022537 60 0 0.0 0.0 0.00 0.00 0.00 42 1011.9
20260507021032 60 0 0.0 0.0 0.00 0.00 0.00 42 1011.9
20260507015526 60 0 0.0 0.0 0.00 0.00 0.00 42 1011.8
20260507014021 60 0 0.0 0.0 0.00 0.00 0.00 42 1011.7
20260507012516 60 0 0.0 0.0 0.00 0.00 0.00 42 1011.6
20260507011010 60 0 0.0 0.0 0.00 0.00 0.00 42 1011.6
20260507005505 60 0 0.0 0.0 0.00 0.00 0.00 42 1011.6
20260507003959 60 0 0.0 0.0 0.00 0.00 0.00 42 1011.5
20260507002454 60 0 0.0 0.0 0.00 0.00 0.00 42 1011.4
20260507000948 61 0 0.0 0.0 0.00 0.00 0.00 42 1011.4
20260506235443 61 0 0.0 0.0 0.00 0.00 0.00 42 1011.3
20260506233938 61 0 0.0 0.0 0.00 0.00 0.00 42 1011.4
20260506232432 61 0 0.0 0.0 0.00 0.00 0.00 42 1011.4
20260506230927 61 0 0.0 0.0 0.00 0.00 0.00 42 1011.3
20260506225421 61 0 0.0 0.0 0.00 0.00 0.00 42 1011.4
20260506223917 62 0 0.0 0.0 0.00 0.00 0.00 42 1011.1
20260506222411 62 0 0.0 0.0 0.00 0.00 0.00 42 1011.1
20260506220905 62 0 0.0 0.0 0.00 0.00 0.00 42 1011.2
20260506215400 62 0 0.0 0.0 0.00 0.00 0.00 41 1011.2
20260506213854 62 0 0.0 0.0 0.00 0.00 0.00 41 1011.2
20260506212349 62 0 0.0 0.0 0.00 0.00 0.00 41 1011.5
20260506210843 62 0 0.0 0.0 0.00 0.00 0.00 41 1011.3
20260506205338 62 0 0.0 0.0 0.00 0.00 0.00 41 1011.2
20260506203833 63 0 0.0 0.0 0.00 0.00 0.00 41 1010.8
20260506202327 63 0 0.0 0.0 0.00 0.00 0.00 41 1010.8
20260506200822 63 0 0.0 0.0 0.00 0.00 0.00 41 1010.7
20260506195316 64 0 0.0 0.0 0.00 0.00 0.00 40 1010.8
20260506193811 64 0 0.0 0.0 0.00 0.00 0.00 40 1010.6
20260506192306 63 0 0.0 0.0 0.00 0.00 0.00 41 1010.5
20260506190800 64 0 0.0 0.0 0.00 0.00 0.00 40 1010.4
20260506185255 64 0 0.0 0.0 0.00 0.00 0.00 41 1010.2
20260506183749 64 0 0.0 0.0 0.00 0.00 0.00 41 1010.0
20260506182244 64 0 0.0 0.0 0.00 0.00 0.00 40 1010.0
20260506180739 64 0 0.0 0.0 0.00 0.00 0.00 40 1009.8
20260506175233 64 0 0.0 0.0 0.00 0.00 0.00 40 1009.7
20260506173728 64 0 0.0 0.0 0.00 0.00 0.00 40 1009.6
20260506172222 65 0 0.0 0.0 0.00 0.00 0.00 40 1009.5
20260506170717 65 0 0.0 0.0 0.00 0.00 0.00 40 1009.2
20260506165211 65 0 0.0 0.0 0.00 0.00 0.00 40 1009.1
20260506163706 65 0 0.0 0.0 0.00 0.00 0.00 40 1008.9
20260506162201 65 0 0.0 0.0 0.00 0.00 0.00 39 1009.0
20260506160655 65 0 0.0 0.0 0.00 0.00 0.00 39 1009.1
20260506155150 66 0 0.0 0.0 0.00 0.00 0.00 39 1009.1
20260506153644 66 0 0.0 0.0 0.00 0.00 0.00 39 1009.1